Location: Artiguedieu
(43.5000°N, 0.5454°E)
Time: 21:26:09
(UTC+00:00)

Vanguard 1 - Pass Details

Date: 29 July 2021
Orbit: 652 x 3831 km, 34.3° (Epoch: 19 September)

Event Time Altitude Azimuth Distance (km) Brightness Sun altitude
Rises 16:44:24 0° 271° (W) 4,680 14.9 27.0°
Reaches altitude 10° 16:47:29 10° 260° (W) 4,066 14.9 26.5°
Maximum altitude 16:57:03 31° 204° (SSW) 3,693 13.5 24.7°
Drops below altitude 10° 17:11:59 10° 152° (SSE) 6,357 13.9 22.0°
Sets 17:18:34 0° 144° (SE) 7,717 14.2 20.8°
